Location: Unspecified
(0.0000°N, 0.0000°E)
Time: 08:52:57
(UTC+00:00)

deb r/b Ablestar - Pass Details

Date: 17 February 2026
Orbit: 902 x 2195 km, 67.6° (Epoch: 14 March)

Event Time Altitude Azimuth Distance (km) Brightness Sun altitude
Rises 05:44:29 0° 19° (NNE) 4,430 ? -7.2°
Reaches altitude 10° 05:48:32 10° 38° (NE) 3,692 ? -6.2°
Maximum altitude 05:54:15 18° 76° (ENE) 3,430 ? -4.8°
Drops below altitude 10° 06:00:43 10° 113° (ESE) 4,315 ? -3.3°
Sets 06:05:57 0° 130° (SE) 5,510 ? -2.0°
